Retour au catalogue

STARLINK-37635

ActifCommunicationsSSO
NORAD 69029·PAYLOAD·🇺🇸 United States

Lancé May 6, 2026 depuis Vandenberg Space Force Base

Loading…

Prochains Passages (prochaines 24 heures)

TLE

FraisSource: CelesTrak SupGP

Époque: Sep 14, 2026, 21:39 UTC

1 69029C 26101E   26257.90256944  .00053081  00000+0  16485-2 0  2576
2 69029  97.2849 111.4281 0002239  91.0526  84.3561 15.33396119    13

Suivez STARLINK-37635 en temps réel avec AllMySat

Download on the App Store